Home > Weather > Springe > Past weeks

Flag for Germany Weather for the Past 2 Weeks in Springe, Lower Saxony, Germany

Now
45 °F

Quite cool.


Feels Like: 37 °F
Forecast: 42 / 49 °F
Wind: 17 mph from Southwest

Location: Wunstorf Airport

Current Time: Feb 7, 2016 at 11:31:30 PM

Latest Report: Feb 7, 2016 at 10:20 PM


Visibility: N/A

Pressure: 29.59 "Hg

Humidity: 66%

Dew point: 34 °F

Location of SpringeLocation

Historic Weather in Springe — Graph

°F

Springe Temperature Yesterday

Maximum temperature yesterday: 52 °F (at 12:20 PM)
Minimum temperature yesterday: 45 °F (at 8:20 AM)
Average temperature yesterday: 48 °F

High & Low Weather Summary for the Past Weeks

 TemperatureHumidityPressure
High54 °F (Jan 25, 1:20 PM)100% (Jan 25, 5:20 AM)30.30 "Hg (Jan 25, 5:20 AM)
Low36 °F (Jan 31, 3:20 AM)58% (Feb 2, 10:20 AM)29.47 "Hg (Feb 7, 9:20 AM)
Average46 °F81%29.94 "Hg
* Reported Jan 25 5:20 AM — Feb 7 9:20 PM, Springe, Weather by CustomWeather, © 2016

Note: Actual official high and low records may vary slightly from our data, if they occured in-between our weather recording intervals... More about our weather records

Advertising

Springe Weather History for the Previous 24 Hours

 ConditionsComfort  
Time TempWeatherWind HumidityBarometerVisibility
9:20 PM
Sun, Feb 7
45 °FQuite cool.15 mph66%29.59 "HgN/A
8:20 PM46 °FCool.14 mph66%29.59 "HgN/A
7:20 PM46 °FCool.14 mph66%29.56 "HgN/A
6:20 PM48 °FCool.10 mph71%29.56 "HgN/A
5:20 PM48 °FCool.12 mph76%29.56 "HgN/A
4:20 PM48 °FCool.15 mph71%29.53 "HgN/A
3:20 PM50 °FCool.14 mph71%29.53 "HgN/A
2:20 PM50 °FCool.15 mph76%29.50 "HgN/A
1:20 PM48 °FCool.16 mph82%29.50 "HgN/A
12:20 PM54 °FCool.17 mph63%29.47 "HgN/A
11:20 AM54 °FCool.22 mph58%29.47 "HgN/A
10:20 AM52 °FCool.17 mph62%29.47 "HgN/A
9:20 AM50 °FCool.16 mph67%29.47 "HgN/A
8:20 AM48 °FCool.9 mph66%29.50 "HgN/A
7:20 AM48 °FCool.8 mph66%29.50 "HgN/A
6:20 AM48 °FCool.10 mph66%29.50 "HgN/A
5:20 AM50 °FCool.14 mph62%29.53 "HgN/A
4:20 AM50 °FCool.17 mph62%29.53 "HgN/A
3:20 AM50 °FCool.21 mph67%29.53 "HgN/A
2:20 AM50 °FCool.20 mph67%29.56 "HgN/A
1:20 AM48 °FCool.18 mph71%29.59 "HgN/A
12:20 AM48 °FCool.18 mph71%29.62 "HgN/A
11:20 PM
Sat, Feb 6
48 °FCool.15 mph71%29.62 "HgN/A
Weather by CustomWeather, © 2016

See weather overviewHow to use our weather pages